Regional Weather Roundup
Issued by NWS

Home | Current Version | Previous Version | Graphics & Text | Print | Product List | Glossary On
Versions: 1 2 3 4 5 6 7 8 9 10 11 12 13 14 15 16 17 18 19 20 21 22 23 24 25 26 27 28
000
ASUS45 KSLC 231910
RWRUT

UTAH REGIONAL WEATHER ROUNDUP
NATIONAL WEATHER SERVICE SALT LAKE CITY UT
100 PM MDT THU MAR 23 2017

UTZ001>011-023>025-232000-

NORTHERN UTAH

CITY           SKY/WX    TMP DP  RH WIND       PRES   REMARKS
BRIGHAM CITY     N/A     43  37  80 N10       29.85R
DUGWAY         LGT RAIN  40  36  84 NW15      29.89R WCI  32
HILL AFB       LGT SNOW  35  33  94 SE5       29.86R FOG     WCI  31
LOGAN          LGT RAIN  43  37  79 W7        29.83R
OGDEN          LGT RAIN  38  36  92 N7        29.85R WCI  33
SALT LAKE CITY LGT SNOW  36  34  92 NW9       29.87R FOG     WCI  29
WENDOVER       NOT AVBL
HEBER CITY     MIX PCPN  39  34  81 W5        29.79R

$$

UTZ011>015-024>027-232000-

CENTRAL/NORTHEAST UTAH

CITY           SKY/WX    TMP DP  RH WIND       PRES   REMARKS
PROVO AIRPORT  LGT RAIN  40  37  89 W16       29.86R WCI  31
MOAB/CANYONLAN CLOUDY    56  33  42 SW18G24   29.73S
DELTA          CLOUDY    34  32  93 SE3       29.91R
PRICE          LGT RAIN  39  37  92 N8        29.78R FOG     WCI  33
RICHFIELD      PTSUNNY   45  34  65 S9        29.86S
ROOSEVELT      MOSUNNY   50  37  62 SW7       29.77F
VERNAL         CLOUDY    52  40  63 NW15      29.73F

$$

UTZ013>016-019>022-027-232000-

SOUTHERN UTAH

CITY           SKY/WX    TMP DP  RH WIND       PRES   REMARKS
BRYCE CANYON   LGT SNOW  34  28  79 W21G29    29.86R WCI  22
CEDAR CITY     LGT RAIN  38  35  89 SW10      29.90R WCI  31
MILFORD        LGT RAIN N/A N/A N/A NE9       29.91R
ST GEORGE      CLOUDY    56  34  43 W20       29.92R
HANKSVILLE     CLOUDY    48  37  66 NW9       29.80R
KANAB          MOSUNNY   48  37  66 SW16G23   29.93R
BLANDING       CLOUDY    43  33  66 S8        29.90S

$$

REGIONAL REPORTS     COLORADO/ARIZONA

CITY           SKY/WX    TMP DP  RH WIND       PRES   REMARKS
CRAIG, CO      SUNNY     61  17  18 S26G35    29.69F
GRAND JUNCTION CLOUDY    53  32  44 SE10      29.72F
RIFLE, CO      MOSUNNY   56  31  38 W29G35    29.72S
MONTROSE, CO   CLOUDY    53  30  41 N21G32    29.73S
CORTEZ, CO     LGT RAIN  43  38  82 S6        29.81F
COLORADO CITY    N/A     50  37  62 NW15      29.93S
PAGE, AZ       LGT RAIN  51  32  48 CALM      29.83S
GRAND CANYON   CLOUDY    37  31  78 SW12      29.92R WCI  29
KINGMAN, AZ    MOSUNNY   55  28  35 SW17G23   29.97R
FLAGSTAFF, AZ  LGT SNOW  32  31  96 W13       29.94R VSB 1   WCI  22

$$

REGIONAL REPORTS    NEVADA/IDAHO/WYOMING

CITY           SKY/WX    TMP DP  RH WIND       PRES   REMARKS
LAS VEGAS, NV  PTSUNNY   64  31  28 N16G23    29.94R
ELY, NY        PTSUNNY   41  33  73 N12       29.96R
ELKO, NV       MOSUNNY   46  26  45 NW16G22   30.04R
POCATELLO, ID  CLOUDY    42  36  79 SW22      29.91R
BURLEY, ID     MOSUNNY   48  32  53 W24G39    29.91S
FORT BRIDGER,  CLOUDY    40  38  95 W13       29.79R WCI  32
EVANSTON, WY   SNOW      33  30  88 W10       29.79R VSB 1/2 WCI  25
ROCK SPRINGS,  CLOUDY    46  36  68 SW8       29.72F
KEMMERER, WY   SNOW      34  32  93 SW8       29.77R VSB<1/4 WCI  27

$$




USA.gov is the U.S. government's official web portal to all federal, state and local government web resources and services.